Other Public Products
Issued by NWS Grand Forks, ND

Home | Current Version | Previous Version | Text Only | Print | Product List | Glossary On
Versions: 1 2 3 4 5 6 7 8 9 10 11 12 13 14 15 16 17 18 19 20 21 22 23 24 25 26 27 28 29 30 31 32 33 34 35 36 37 38 39 40 41 42 43 44 45 46 47 48 49 50
000
FPUS83 KFGF 061610
OPUFGF
PRAIRIE TO PINES WEATHER ROUNDUP
NATIONAL WEATHER SERVICE EASTERN NORTH DAKOTA/GRAND FORKS ND
1000 AM CST TUE DEC 06 2016

 **SATELLITE DATA USED TO AUGMENT SKY COVER AT AUTOMATED STATIONS**
 *****  WEATHER ACROSS EASTERN NORTH DAKOTA  *****

CITY           SKY/WX    TMP DP  RH WIND       PRES   REMARKS
GRAND FORKS    SNOW      29  26  89 NW35G44   29.29R VSB 1/2 WCI  12
GRAND FORKS AF SNOW      28  26  92 N28G39    29.32R VSB 1/2 WCI  13
GRAND CITY NWS   N/A     28 N/A N/A NW16        N/A  WCI  17
BUXTON         NOT AVBL
DEVILS LAKE    LGT SNOW  20  17  88 NW35G40   29.51R VSB 3/4 WCI   0
FARGO          LGT SNOW  22  18  85 W33G45    29.42R VSB 3/4 WCI   3
WAHPETON ARPT  CLOUDY    21  16  79 W36G44    29.53R WCI   2
$$

 *****  WEATHER ACROSS CENTRAL AND WESTERN NORTH DAKOTA  *****

CITY           SKY/WX    TMP DP  RH WIND       PRES   REMARKS
JAMESTOWN      SNOW      14  11  87 NW39G53   29.58R VSB 1/4 WCI  -9
BISMARCK       LGT SNOW   9   7  92 NW25G33   29.85R VSB 1   WCI -12
MINOT          SNOW      10   6  84 W35G49    29.80R VSB 1/4 WCI -13
MINOT AFB      BLWGSNOW   9   5  85 NW36G45   29.79R VSB<1/4 WCI -16
GARRISON         N/A      7   4  87 NW41G56   29.82R WCI -19
WILLISTON      CLOUDY     4  -2  76 NW20      30.03R WCI -17
DICKINSON      MIX PCPN   1  -5  75 NW31G40   29.91R VSB 3/4 WCI -25
HETTINGER      CLOUDY     4  -3  73 NW33G44   29.94R HAZE    WCI -22
$$

 *****  OTHER OBSERVATIONS NORTHEAST NORTH DAKOTA  *****

CITY           SKY/WX    TMP DP  RH WIND       PRES   REMARKS
WALHALLA       SNOW      27  27 100 N36G48    29.41R VSB 1/2 WCI   9
LANGDON        HVY SNOW  23  23 100 NW43G53   29.42R VSB<1/4 WCI   3
CAVALIER       HVY SNOW  28  27  93 N29G46    29.37R VSB 1/4 WCI  13
GRAFTON        FOG       25  25 100 N15       29.35R VSB 1/4 WCI  12
CANDO          SNOW      18  18 100 NW37G43   29.58R VSB 1/2 WCI  -4
FORT TOTTEN      N/A     17  17  98 NW16      29.95S WCI   2
ROLLA          HVY SNOW  14  14 100 NW44G55   29.58R VSB<1/4 WCI -10
RUGBY          HVY SNOW  12  10  92 NW40G51   29.65S VSB<1/4 WCI -12
 ***** THE ABOVE OBSERVATIONS ARE NON NWS ARE NOT QUALITY
        CONTROLLED AND MAY MIS-REPORT RAIN FOR SNOW...
$$

 *****  OTHER OBSERVATIONS SOUTHEAST NORTH DAKOTA *****

CITY           SKY/WX    TMP DP  RH WIND       PRES   REMARKS
COOPERSTOWN    SNOW      18  16  93 NW40G48   29.45R VSB<1/4 WCI  -4
VALLEY CITY    HVY SNOW  16  16 100 NW40G53   29.53R VSB<1/4 WCI  -7
OAKES          NOT AVBL
GWINNER        NOT AVBL
SHEYENNE NWR     N/A     19  13  76 NW28      29.95S WCI   1
BUFFALO        NOT AVBL
WYNDMERE       NOT AVBL
 ***** THE ABOVE OBSERVATIONS ARE NON NWS ARE NOT QUALITY
       CONTROLLED AND MAY MIS-REPORT RAIN FOR SNOW...
$$

  *****  WEATHER ACROSS NORTHERN MINNESOTA  *****

CITY           SKY/WX    TMP DP  RH WIND       PRES   REMARKS
FLAG ISLAND    CLOUDY    27  21  80 SE20      29.38S WCI  13
WARROAD        CLOUDY    25  19  80 S12G20    29.37S WCI  14
ROSEAU         CLOUDY    25  19  80 SE12G17   29.36S WCI  14
HALLOCK        LGT SNOW  25  21  86 NE9       29.34R VSB 1   WCI  15
THF RVR FALLS  LGT SNOW  22  20  92 SE21      29.27S VSB 1   WCI   6
HALSTAD          N/A     25  23  91 W29         N/A  WCI   9
FOSSTON        LGT SNOW  19  18  93 SE16      29.29F VSB 3/4 WCI   5
BAUDETTE       CLOUDY    23  17  78 S13       29.40S WCI  11
WASKISH        CLOUDY    21  18  86 SE15G21   29.40S WCI   8
CROOKSTON      LGT SNOW  28  28 100 NW21      29.25F VSB 1   WCI  15
$$
  *****  WEATHER ACROSS CENTRAL AND WEST MINNESOTA  *****

CITY           SKY/WX    TMP DP  RH WIND       PRES   REMARKS
BEMIDJI        CLOUDY    19  14  82 S20       29.37F WCI   2
PARK RAPIDS    LGT SNOW  19  13  77 S21G29    29.40F VSB 1   WCI   3
WADENA         LGT SNOW  19  16  86 SW16G25   29.44F WCI   5
DETROIT LAKES  LGT SNOW  25  23  93 W16G24    29.39R VSB 1   WCI  12
MOORHEAD       LGT RAIN  21  19  93 W31G40    29.43R VSB 3/4 WCI   3
FERGUS FALLS   LGT SNOW  21  18  86 W25G33    29.55R WCI   4
ELBOW LAKE     LGT SNOW  20  19  93 W28G41    29.56R VSB 3/4 WCI   2
MORRIS MN      CLOUDY    21  16  79 W25G39    29.60R HAZE    WCI   4
STAPLES        LGT SNOW  18  16  93 S17G23    29.49F WCI   2
WHEATON        LGT SNOW  21  19  93 W21G29    29.62R WCI   6
$$
  *****  WEATHER ELSEWHERE ACROSS MINNESOTA  *****

CITY           SKY/WX    TMP DP  RH WIND       PRES   REMARKS
DULUTH         FLURRIES  24  16  71 SW21G29   29.53F WCI   9
INTRNTL FALLS  CLOUDY    24  18  77 VRB5      29.44S WCI  18
ELY            CLOUDY    28  25  86 S12G21    29.46S WCI  18
CLOQUET        FLURRIES  23  16  74 S16G23    29.54F WCI  10
BRAINERD       LGT SNOW  19  13  77 S22G30    29.53F WCI   2
HIBBING        CLOUDY    21  15  78 VRB7      29.49F WCI  12
ALEXANDRIA     LGT SNOW  20  16  84 SW25G31   29.54S VSB 3/4 WCI   2
SAINT CLOUD    FLURRIES  19  12  74 SW20      29.65S WCI   3
MINNEAPOLIS    FLURRIES  21  11  65 SW18G26   29.74S WCI   6
$$

  *****  WEATHER ACROSS SOUTH DAKOTA  *****

CITY           SKY/WX    TMP DP  RH WIND       PRES   REMARKS
SIOUX FALLS    FLURRIES  18   9  68 W29G38    29.87R WCI  -1
BROOKINGS      LGT SNOW  15   9  76 W33G41    29.76R WCI  -6
WATERTOWN      LGT SNOW  14   9  80 W29G43    29.71R WCI  -7
HURON          MOSUNNY   18   7  62 NW30G40   29.88R WCI  -1
SISSETON         N/A     20  13  74 NW26G40   29.61R WCI   2
ABERDEEN       CLOUDY    16   7  67 W35G46    29.76R WCI  -5
MITCHELL       PTSUNNY   19   9  65 W21G35    29.94R WCI   3
PIERRE         PTSUNNY   12   5  73 NW38G45   29.96R BLWGSNOWWCI -12
MOBRIDGE       LGT SNOW  12   4  70 NW29G51   29.86R VSB 3/4 WCI  -9
RAPID CITY     SUNNY     13   2  61 N21       29.97R WCI  -5
$$

  *****  SOME WEATHER IN NEARBY STATES *****

CITY           SKY/WX    TMP DP  RH WIND       PRES   REMARKS
GLASGOW MT     CLEAR     -1  -9  68 NW24G32   30.15R WCI -25
GREAT FALLS MT CLOUDY     0  -4  83 N6        30.15R WCI -12
CHEYENNE WY    SUNNY     17 -16  22 NW10      29.89R WCI   5
SCOTTSBLUFF NE SUNNY     15   5  64 NW10      30.01R WCI   2
OMAHA NE       SUNNY     27  12  53 NW18G24   30.03R WCI  14
DES MOINES IA  MOSUNNY   28  15  58 NW20G30   29.96R WCI  15
DAVENPORT IA   CLOUDY    33  32  96 NW14      29.84R FOG     WCI  23
CHICAGO IL     CLOUDY    31  30  96 NW5       29.77S FOG
EAU CLAIRE WI  PTSUNNY   28  23  81 SW12      29.71R WCI  18
LA CROSSE WI   CLOUDY    32  26  78 W12       29.77R WCI  23
$$

  *****  SOME NATIONAL WEATHER *****

CITY           SKY/WX    TMP DP  RH WIND       PRES   REMARKS
LA GUARDIA NY  CLOUDY    47  32  56 NE10      30.11F
RALEIGH NC     LGT RAIN  47  45  93 E10G18    29.86F VSB 1
ATLANTA GA     DRZL/FOG  54  53  97 E8        29.75R VSB 1
NEW ORLEANS LA CLOUDY    57  53  86 NW10      29.95R
OKLAHOMA CITY  CLOUDY    38  23  55 N22G30    30.07R
ALBUQUERQUE NM CLOUDY    39  20  46 SE6       29.94S
SALT LAKE CITY PTSUNNY   26  12  55 S7        29.86F WCI  18
LOS ANGELES CA PTSUNNY   57  50  77 CALM      30.00R
BOISE ID       LGT SNOW  24  20  84 SE7       29.89S FOG     WCI  16
SEATTLE WA     PTCLDY    32  30  92 N8        30.09R WCI  25
$$

*** WEATHER ACROSS MANITOBA...SASKATCHEWAN AND ONTARIO ***
                ***ONTARIO***

CITY           SKY/WX    TMP DP  RH WIND       PRES   REMARKS
GERALDTON      LGT SNOW  30  30 100 E12       29.74F WCI  21
THUNDER BAY    LGT RAIN  37  34  87 S15       29.59F
SIOUX LOOKOUT  LGT SNOW  32  32 100 SE5       29.43F
TORONTO        PTSUNNY   41  36  81 E16       29.95F
BIG TROUT LK   CLOUDY    21  19  93 E9        29.86F WCI  11
PICKLE LAKE    HVY SNOW  25  23  93 E13G21    29.62F VSB 1/4 WCI  13
DRYDEN         FLURRIES  32  30  93 SE9       29.41S WCI  24
KENORA         FLURRIES  28  25  86 S14G21    29.39R WCI  17
$$
                *** MANITOBA***

CITY           SKY/WX    TMP DP  RH WIND       PRES   REMARKS
BRANDON        FLURRIES  21  16  79 N23G30    29.70R WCI   5
DAUPHIN        FRZ RAIN  18  16  93 NW17G23   29.81S FOG     WCI   2
ISLAND LAKE    CLOUDY    25  23  93 NE7       29.82  WCI  17
PILOT MOUND      N/A     21  19  93 NW29G38     N/A  WCI   3
THE PAS        FLURRIES  16  10  79 NW16      29.97R WCI   0
THOMPSON       FLURRIES  18  14  86 NE6       29.95R WCI   9
WINNIPEG       SNOW      28  27  93 N31G44    29.41S VSB 1/4 WCI  12
LYNN LAKE      LGT SNOW  16  16 100 NE7       29.96S WCI   6
CHURCHILL      LGT SNOW  27  25  93 N20G26    29.98F DRFTSNOWWCI  13
GILLAM         FLURRIES  19  18  93 NE3       29.97R
$$
                ***SASKATCHEWAN***

CITY           SKY/WX    TMP DP  RH WIND       PRES   REMARKS
ESTEVAN        LGT SNOW   7   3  85 NW26G35   29.93R VSB 1   WCI -16
KINDERSLEY     CRYSTALS  -4 -11  71 NW13G18   30.18R WCI -23
LLOYDMINSTER   MOCLDY    -4  -9  77 NW16G24   30.20R WCI -25
PRINCE ALBERT  FLURRIES   3  -2  78 NW10G17   30.10R WCI -12
REGINA         LGT SNOW   3   0  85 NW22G28   30.03R BLWGSNOWWCI -19
YORKTON        FLURRIES   9   5  85 NW22G31   29.91S WC1F1C2F2C3F3C4F4C5F5C6F6C7F7C8F8C9F9CaFaCbFbCcFcCdFdCe!


USA.gov is the U.S. government's official web portal to all federal, state and local government web resources and services.